Regional Weather Roundup
Issued by NWS Mt. Holly, NJ

Home | Current Version | Previous Version | Text Only | Print | Product List | Glossary On
Versions: 1 2 3 4 5 6 7 8 9 10 11 12 13 14 15 16 17 18 19 20 21 22 23 24 25 26 27 28 29 30 31 32 33 34 35 36 37 38 39 40 41 42 43 44 45 46 47 48 49 50
000
ASUS41 KPHI 080212
RWRPHI

REGIONAL WEATHER ROUNDUP
NATIONAL WEATHER SERVICE MOUNT HOLLY NJ
1000 PM EDT TUE JUL 07 2015

NOTE:  "FAIR" INDICATES FEW OR NO CLOUDS BELOW 12,000 FEET WITH NO
SIGNIFICANT WEATHER AND/OR OBSTRUCTIONS TO VISIBILITY.

 * = STATION DOES NOT REPORT PRECIPITATION (E.G. RAIN, SNOW, ETC.)
        OR FOG.

NJZ015>026-080300-
SOUTHERN NEW JERSEY

CITY           SKY/WX    TMP DP  RH WIND       PRES   REMARKS
POMONA         CLEAR     79  73  82 S5        30.02R
RIO GRANDE*    CLEAR     75  70  83 S5        30.04R
MILLVILLE      CLEAR     78  70  76 CALM      30.01R
WRIGHTSTOWN    CLEAR     77  71  83 SW5       29.98R
MOUNT HOLLY    CLEAR     79  70  74 CALM      29.99R
TRENTON        CLEAR     79  68  69 S3        29.98R

$$
NJZ001>014-080300-
NORTHERN NEW JERSEY

CITY           SKY/WX    TMP DP  RH WIND       PRES   REMARKS
SUSSEX         LGT RAIN  71  69  93 CALM      29.98R
ANDOVER*         N/A     71  70  96 CALM      29.99R
MORRISTOWN     PTCLDY    81  72  74 SW6       29.98R
NEWARK         PTCLDY    82  69  64 SW8       29.97R
TETERBORO      CLEAR     81  69  67 S5        29.96R
CALDWELL       PTCLDY    81  68  64 CALM      29.97R
SOMERVILLE     CLEAR     74  70  87 CALM      29.96R
ALLAIRE*       CLEAR     79  70  73 SW6       30.00R
TOMS RIVER*    CLEAR     77  73  88 S3        30.01R

$$
PAZ043-044-047-054-055-060>062-066>071-080300-
EASTERN PENNSYLVANIA

CITY           SKY/WX    TMP DP  RH WIND       PRES   REMARKS
PHILADELPHIA   PTCLDY    83  70  64 S8        30.00R
NORTH PHILA    CLEAR     84  68  58 SW5       30.00R
BLUE BELL      CLEAR     79  72  78 CALM      29.99R
DOYLESTOWN     CLEAR     76  69  79 S3        29.99R
QUAKERTOWN*    CLEAR     77  72  83 SW3       30.01R
POTTSTOWN      CLEAR     77  72  84 CALM      30.01R
LANCASTER      PTCLDY    78  67  68 S6        29.99R
COATESVILLE    CLEAR     75  73  94 CALM      30.02R
READING        CLEAR     78  69  73 S6        29.98R
ALLENTOWN      CLEAR     77  68  73 SW7       29.98R
MOUNT POCONO   CLEAR     71  64  78 W5        30.05R
HAZLETON       PTCLDY    73  66  78 S3        30.06R
WILKES BARRE   PTCLDY    78  66  66 CALM      29.98R

$$
DEZALL-MDZ008-012-015-019-020-080300-
DELAWARE AND EASTERN MARYLAND

CITY           SKY/WX    TMP DP  RH WIND       PRES   REMARKS
WILMINGTON     CLEAR     80  70  71 SW6       30.00R
DOVER          CLEAR     78  72  82 S6        30.00R
GEORGETOWN     CLEAR     78  72  81 S5        30.03R
EASTON         CLEAR    N/A N/A N/A SW6       30.05R HAZE
PATUXENT       PTCLDY    78  72  81 S5        30.03R
OCEAN CITY     PTCLDY    79  76  90 SW7       30.04R
WALLOPS ISLAND CLEAR     78  77  96 S6        30.05R
CAMBRIDGE      CLEAR     79  70  73 CALM      30.02R
SALISBURY      CLEAR     77  74  90 S5        30.04R

$$
PAZ001-021-NYZ056-072-MDZ011-DCZ001-080300-
OTHER NEARBY LOCATIONS

CITY           SKY/WX    TMP DP  RH WIND       PRES   REMARKS
HARRISBURG     PTCLDY    81  67  62 VRB3      29.97R
WILLIAMSPORT   MOCLDY    82  68  62 S10       29.93R
BINGHAMTON     MOCLDY    74  67  78 SW8       29.98R
NEW YORK CITY  CLEAR     82  68  62 W5        30.00R
BALTIMORE      MOCLDY    80  69  69 S3        30.00R
WASHINGTON DC  PTCLDY    83  74  74 S10       30.01R

$$



USA.gov is the U.S. government's official web portal to all federal, state and local government web resources and services.